,,PA_Meas_PMT16A,,PR_Meas_QMR101_102,,RH_Meas_QMH101,,SR_Meas_QMS101,,TA_Meas_QMH101,,GenWind,,GenWind,
time,status,PA,status,PR,status,RH,status,SR,status,TA,status,DirAvg,status,SpdAvg,
2015-05-30, 06:59:04,VALID,917.661,VALID,0,VALID,82.3176,VALID,70.9112,VALID,22.2176,VALID,76,VALID,1.41172,
2015-05-30, 07:00:04,VALID,917.662,VALID,0,VALID,82.0966,VALID,74.4567,VALID,22.3169,VALID,130,VALID,2.09414,
2015-05-30, 07:01:04,VALID,917.654,VALID,0,VALID,81.7688,VALID,77.7874,VALID,22.3364,VALID,111,VALID,2.08203,
2015-05-30, 07:02:04,VALID,917.645,VALID,0,VALID,82.2414,VALID,81.4404,VALID,22.3559,VALID,135,VALID,0.757422,
2015-05-30, 07:03:04,VALID,917.675,VALID,0,VALID,81.8755,VALID,83.6967,VALID,22.3754,VALID,113,VALID,2.00273,
2015-05-30, 07:04:04,VALID,917.668,VALID,0,VALID,82.6302,VALID,86.0604,VALID,22.3737,VALID,93,VALID,0,
2015-05-30, 07:05:04,VALID,917.703,VALID,0,VALID,81.8374,VALID,88.8538,VALID,22.3737,VALID,69,VALID,0.0121094,
2015-05-30, 07:06:04,VALID,917.652,VALID,0,VALID,81.5019,VALID,91.4324,VALID,22.4128,VALID,110,VALID,0.354688,
2015-05-30, 07:07:04,VALID,917.675,VALID,0,VALID,81.4943,VALID,93.9036,VALID,22.4713,VALID,97,VALID,0.407813,
2015-05-30, 07:08:04,VALID,917.685,VALID,0,VALID,82.0813,VALID,97.1268,VALID,22.4925,VALID,125,VALID,0,
2015-05-30, 07:09:04,VALID,917.73,VALID,0,VALID,82.0127,VALID,100.78,VALID,22.5103,VALID,126,VALID,0.0015625,
2015-05-30, 07:10:04,VALID,917.68,VALID,0,VALID,81.8679,VALID,103.681,VALID,22.5494,VALID,57,VALID,2.01328,
2015-05-30, 07:11:04,VALID,917.699,VALID,0,VALID,80.9607,VALID,99.2756,VALID,22.5299,VALID,125,VALID,1.66328,
2015-05-30, 07:12:04,VALID,917.695,VALID,0,VALID,80.5795,VALID,110.127,VALID,22.5689,VALID,76,VALID,2.4625,
2015-05-30, 07:13:04,VALID,917.712,VALID,0,VALID,81.4943,VALID,111.954,VALID,22.5689,VALID,94,VALID,0.156641,
2015-05-30, 07:14:04,VALID,917.715,VALID,0,VALID,81.075,VALID,115.177,VALID,22.5494,VALID,87,VALID,1.2,
2015-05-30, 07:15:04,VALID,917.726,VALID,0,VALID,81.6392,VALID,117.863,VALID,22.6274,VALID,144,VALID,0.00429688,
2015-05-30, 07:16:04,VALID,917.733,VALID,0,VALID,79.779,VALID,121.194,VALID,22.647,VALID,139,VALID,1.40898,
2015-05-30, 07:17:04,VALID,917.765,VALID,0,VALID,80.8235,VALID,123.665,VALID,22.686,VALID,144,VALID,0.156641,
2015-05-30, 07:18:04,VALID,917.75,VALID,0,VALID,80.4499,VALID,127.533,VALID,22.6843,VALID,161,VALID,0,
2015-05-30, 07:19:04,VALID,917.781,VALID,0,VALID,81.0217,VALID,131.401,VALID,22.8031,VALID,135,VALID,0,
2015-05-30, 07:20:04,VALID,917.713,VALID,0,VALID,79.0167,VALID,133.657,VALID,22.8209,VALID,86,VALID,1.06172,
2015-05-30, 07:21:04,VALID,917.763,VALID,0,VALID,80.8082,VALID,137.31,VALID,22.8599,VALID,128,VALID,0,
2015-05-30, 07:22:04,VALID,917.782,VALID,0,VALID,79.7409,VALID,140.318,VALID,22.9185,VALID,125,VALID,0,
2015-05-30, 07:23:04,VALID,917.775,VALID,0,VALID,78.6127,VALID,143.004,VALID,22.9983,VALID,139,VALID,0,
2015-05-30, 07:24:04,VALID,917.793,VALID,0,VALID,78.0485,VALID,146.335,VALID,23.0746,VALID,139,VALID,0,
2015-05-30, 07:25:04,VALID,917.807,VALID,0,VALID,78.8719,VALID,150.955,VALID,23.1331,VALID,120,VALID,0,
2015-05-30, 07:26:04,VALID,917.807,VALID,0,VALID,78.14,VALID,153.211,VALID,23.2325,VALID,118,VALID,0,
2015-05-30, 07:27:04,VALID,917.849,VALID,0,VALID,77.797,VALID,157.079,VALID,23.3887,VALID,87,VALID,0,
2015-05-30, 07:28:04,VALID,917.876,VALID,0,VALID,77.1032,VALID,160.839,VALID,23.3478,VALID,64,VALID,0.237109,
2015-05-30, 07:29:04,VALID,917.877,VALID,0,VALID,77.8275,VALID,162.773,VALID,23.3478,VALID,55,VALID,0,
2015-05-30, 07:30:04,VALID,917.884,VALID,0,VALID,77.2328,VALID,166.856,VALID,23.3301,VALID,102,VALID,0.883203,
2015-05-30, 07:31:04,VALID,917.86,VALID,0,VALID,77.8884,VALID,169.65,VALID,23.2307,VALID,106,VALID,0.427734,
2015-05-30, 07:32:04,VALID,917.888,VALID,0,VALID,78.3154,VALID,173.303,VALID,23.1722,VALID,107,VALID,0.928125,
2015-05-30, 07:33:04,VALID,917.906,VALID,0,VALID,79.0548,VALID,176.096,VALID,23.1722,VALID,102,VALID,0.523828,
2015-05-30, 07:34:04,VALID,917.883,VALID,0,VALID,78.079,VALID,178.137,VALID,23.0941,VALID,117,VALID,2.15586,
2015-05-30, 07:35:04,VALID,917.911,VALID,0,VALID,79.2988,VALID,181.468,VALID,23.0551,VALID,109,VALID,0.154687,
2015-05-30, 07:36:04,VALID,917.933,VALID,0,VALID,79.1387,VALID,184.906,VALID,23.0373,VALID,128,VALID,0.0671875,
2015-05-30, 07:37:04,VALID,917.966,VALID,0,VALID,78.971,VALID,186.948,VALID,23.0941,VALID,99,VALID,1.4793,
2015-05-30, 07:38:04,VALID,917.948,VALID,0,VALID,78.5898,VALID,189.741,VALID,23.1349,VALID,93,VALID,1.32813,
2015-05-30, 07:39:04,VALID,917.953,VALID,0,VALID,79.5961,VALID,195.113,VALID,23.1154,VALID,115,VALID,0.278516,
2015-05-30, 07:40:04,VALID,917.885,VALID,0,VALID,78.3916,VALID,197.692,VALID,23.1935,VALID,52,VALID,2.58047,
2015-05-30, 07:41:04,VALID,917.985,VALID,0,VALID,78.445,VALID,201.989,VALID,23.1331,VALID,112,VALID,1.62617,
2015-05-30, 07:42:04,VALID,917.932,VALID,0,VALID,78.3992,VALID,204.461,VALID,23.1544,VALID,88,VALID,1.55352,
2015-05-30, 07:43:04,VALID,917.949,VALID,0,VALID,78.2162,VALID,207.361,VALID,23.1527,VALID,131,VALID,2.85859,
2015-05-30, 07:44:04,VALID,917.949,VALID,0,VALID,77.9875,VALID,212.196,VALID,23.1331,VALID,124,VALID,1.8418,
2015-05-30, 07:45:04,VALID,917.963,VALID,0,VALID,78.0257,VALID,213.808,VALID,23.1136,VALID,95,VALID,1.43008,
2015-05-30, 07:46:04,VALID,917.953,VALID,0,VALID,78.8414,VALID,215.205,VALID,23.1722,VALID,102,VALID,0.496484,
2015-05-30, 07:47:04,VALID,917.893,VALID,0,VALID,78.6813,VALID,221.651,VALID,23.2112,VALID,103,VALID,0.0308594,
2015-05-30, 07:48:04,VALID,917.962,VALID,0,VALID,78.727,VALID,224.767,VALID,23.2893,VALID,108,VALID,0,
2015-05-30, 07:49:04,VALID,917.908,VALID,0,VALID,76.3638,VALID,227.131,VALID,23.3674,VALID,94,VALID,1.78633,
2015-05-30, 07:50:04,VALID,917.937,VALID,0,VALID,77.1261,VALID,231.106,VALID,23.3283,VALID,113,VALID,2.92188,
2015-05-30, 07:51:04,VALID,917.971,VALID,0,VALID,76.9736,VALID,233.362,VALID,23.268,VALID,131,VALID,1.88516,
2015-05-30, 07:52:04,VALID,918.033,VALID,0,VALID,78.5898,VALID,236.8,VALID,23.3283,VALID,68,VALID,0.503516,
2015-05-30, 07:53:04,VALID,918.059,VALID,0,VALID,78.6508,VALID,241.098,VALID,23.3869,VALID,104,VALID,1.22734,
2015-05-30, 07:54:04,VALID,918.07,VALID,0,VALID,76.7754,VALID,243.784,VALID,23.4259,VALID,105,VALID,3.53086,
2015-05-30, 07:55:04,VALID,918.056,VALID,0,VALID,77.1642,VALID,247.974,VALID,23.3869,VALID,107,VALID,1.90703,
2015-05-30, 07:56:04,VALID,918.055,VALID,0,VALID,78.0104,VALID,250.66,VALID,23.4259,VALID,68,VALID,3.17383,
2015-05-30, 07:57:04,VALID,918.105,VALID,0,VALID,77.4463,VALID,253.346,VALID,23.3656,VALID,103,VALID,1.89922,
2015-05-30, 07:58:04,VALID,918.144,VALID,0,VALID,77.5683,VALID,258.396,VALID,23.4046,VALID,60,VALID,1.35312,
2015-05-30, 07:59:04,VALID,918.108,VALID,0,VALID,78.201,VALID,262.586,VALID,23.5821,VALID,53,VALID,0.15,
2015-05-30, 08:00:04,VALID,918.119,VALID,0,VALID,76.6382,VALID,264.628,VALID,23.6584,VALID,83,VALID,1.80859,
2015-05-30, 08:01:04,VALID,918.123,VALID,0,VALID,77.7512,VALID,267.958,VALID,23.7364,VALID,104,VALID,1.01367,
2015-05-30, 08:02:04,VALID,918.147,VALID,0,VALID,76.4247,VALID,271.289,VALID,23.7364,VALID,97,VALID,1.78086,
2015-05-30, 08:03:04,VALID,918.152,VALID,0,VALID,75.3498,VALID,273.653,VALID,23.7382,VALID,108,VALID,1.94766,
2015-05-30, 08:04:04,VALID,918.199,VALID,0,VALID,76.0664,VALID,276.983,VALID,23.6956,VALID,92,VALID,3.17383,
2015-05-30, 08:05:04,VALID,918.116,VALID,0,VALID,76.7907,VALID,279.454,VALID,23.7187,VALID,64,VALID,3.74375,
2015-05-30, 08:06:04,VALID,918.139,VALID,0,VALID,76.0741,VALID,282.355,VALID,23.6797,VALID,78,VALID,2.71016,
2015-05-30, 08:07:04,VALID,918.187,VALID,0,VALID,76.1503,VALID,283.967,VALID,23.6779,VALID,119,VALID,2.74883,
2015-05-30, 08:08:04,VALID,918.183,VALID,0,VALID,75.9521,VALID,286.546,VALID,23.6602,VALID,117,VALID,2.37422,
2015-05-30, 08:09:04,VALID,918.174,VALID,0,VALID,77.1871,VALID,288.694,VALID,23.6602,VALID,49,VALID,2.7707,
2015-05-30, 08:10:04,VALID,918.182,VALID,0,VALID,76.6001,VALID,296.215,VALID,23.6797,VALID,68,VALID,2.55195,
2015-05-30, 08:11:04,VALID,918.168,VALID,0,VALID,76.0664,VALID,298.901,VALID,23.6602,VALID,66,VALID,2.5457,
2015-05-30, 08:12:04,VALID,918.175,VALID,0,VALID,76.3485,VALID,302.339,VALID,23.6779,VALID,52,VALID,3.23164,
2015-05-30, 08:13:04,VALID,918.195,VALID,0,VALID,76.1732,VALID,304.596,VALID,23.7382,VALID,64,VALID,3.32227,
2015-05-30, 08:14:04,VALID,918.235,VALID,0,VALID,76.6916,VALID,308.464,VALID,23.7578,VALID,81,VALID,2.66563,
2015-05-30, 08:15:04,VALID,918.27,VALID,0,VALID,76.5467,VALID,313.836,VALID,23.7968,VALID,97,VALID,0.969141,
2015-05-30, 08:16:04,VALID,918.249,VALID,0,VALID,76.5086,VALID,315.555,VALID,23.8944,VALID,96,VALID,0.946484,
2015-05-30, 08:17:04,VALID,918.228,VALID,0,VALID,75.67,VALID,319.852,VALID,23.9139,VALID,95,VALID,1.78242,
2015-05-30, 08:18:04,VALID,918.2,VALID,0,VALID,75.0983,VALID,321.356,VALID,23.9335,VALID,93,VALID,2.58867,
2015-05-30, 08:19:04,VALID,918.268,VALID,0,VALID,76.0359,VALID,323.183,VALID,23.9335,VALID,115,VALID,1.77266,
2015-05-30, 08:20:04,VALID,918.261,VALID,0,VALID,77.0499,VALID,326.621,VALID,23.9139,VALID,120,VALID,1.14609,
2015-05-30, 08:21:04,VALID,918.206,VALID,0,VALID,73.8328,VALID,331.241,VALID,23.9121,VALID,132,VALID,3.93516,
2015-05-30, 08:22:04,VALID,918.245,VALID,0,VALID,74.6104,VALID,332.423,VALID,23.992,VALID,94,VALID,1.78555,
2015-05-30, 08:23:04,VALID,918.278,VALID,0,VALID,75.2355,VALID,336.506,VALID,23.9335,VALID,99,VALID,2.76719,
2015-05-30, 08:24:04,VALID,918.272,VALID,0,VALID,74.5646,VALID,340.159,VALID,23.9512,VALID,101,VALID,2.88594,
2015-05-30, 08:25:04,VALID,918.235,VALID,0,VALID,73.9395,VALID,340.696,VALID,23.953,VALID,147,VALID,2.50742,
2015-05-30, 08:26:04,VALID,918.277,VALID,0,VALID,73.4516,VALID,347.142,VALID,23.9707,VALID,92,VALID,3.51758,
2015-05-30, 08:27:04,VALID,918.252,VALID,0,VALID,73.2077,VALID,347.25,VALID,23.9902,VALID,73,VALID,2.63984,
2015-05-30, 08:28:04,VALID,918.238,VALID,0,VALID,73.4669,VALID,354.019,VALID,24.0311,VALID,108,VALID,4.00195,
2015-05-30, 08:29:04,VALID,918.254,VALID,0,VALID,75.1211,VALID,354.126,VALID,24.0896,VALID,78,VALID,1.94141,
2015-05-30, 08:30:04,VALID,918.267,VALID,0,VALID,73.9624,VALID,355.953,VALID,24.1464,VALID,105,VALID,1.11953,
2015-05-30, 08:31:04,VALID,918.286,VALID,0,VALID,73.627,VALID,360.358,VALID,24.1854,VALID,99,VALID,1.97148,
2015-05-30, 08:32:04,VALID,918.259,VALID,0,VALID,73.2534,VALID,361.325,VALID,24.2635,VALID,89,VALID,2.05156,
2015-05-30, 08:33:04,VALID,918.268,VALID,0,VALID,71.7745,VALID,363.366,VALID,24.2654,VALID,136,VALID,2.70391,
2015-05-30, 08:34:04,VALID,918.234,VALID,0,VALID,72.1328,VALID,372.176,VALID,24.283,VALID,75,VALID,2.0457,
2015-05-30, 08:35:04,VALID,918.213,VALID,0,VALID,71.4619,VALID,377.011,VALID,24.283,VALID,101,VALID,2.9793,
2015-05-30, 08:36:04,VALID,918.201,VALID,0,VALID,74.8391,VALID,378.408,VALID,24.363,VALID,61,VALID,2.01211,
2015-05-30, 08:37:04,VALID,918.259,VALID,0,VALID,74.0005,VALID,375.077,VALID,24.3806,VALID,88,VALID,1.70352,
2015-05-30, 08:38:04,VALID,918.202,VALID,0,VALID,73.5126,VALID,385.284,VALID,24.3416,VALID,113,VALID,1.50664,
2015-05-30, 08:39:04,VALID,918.174,VALID,0,VALID,74.0996,VALID,384.424,VALID,24.3611,VALID,86,VALID,2.07617,
2015-05-30, 08:40:04,VALID,918.154,VALID,0,VALID,73.5126,VALID,389.474,VALID,24.3611,VALID,93,VALID,3.2832,
2015-05-30, 08:41:04,VALID,918.156,VALID,0,VALID,73.6803,VALID,392.483,VALID,24.3416,VALID,80,VALID,2.68164,
2015-05-30, 08:42:04,VALID,918.126,VALID,0,VALID,73.5431,VALID,396.136,VALID,24.3806,VALID,67,VALID,3.08008,
2015-05-30, 08:43:04,VALID,918.115,VALID,0,VALID,72.1861,VALID,399.251,VALID,24.3806,VALID,139,VALID,3.42305,
2015-05-30, 08:44:04,VALID,918.185,VALID,0,VALID,72.7121,VALID,400.97,VALID,24.4997,VALID,93,VALID,2.14336,
2015-05-30, 08:45:04,VALID,918.152,VALID,0,VALID,71.6754,VALID,403.764,VALID,24.4783,VALID,92,VALID,1.92969,
2015-05-30, 08:46:04,VALID,918.129,VALID,0,VALID,72.7884,VALID,408.814,VALID,24.4764,VALID,72,VALID,2.91836,
2015-05-30, 08:47:04,VALID,918.162,VALID,0,VALID,72.1709,VALID,409.351,VALID,24.4959,VALID,111,VALID,3.61523,
2015-05-30, 08:48:04,VALID,918.18,VALID,0,VALID,71.4009,VALID,412.896,VALID,24.4978,VALID,90,VALID,1.8918,
2015-05-30, 08:49:04,VALID,918.17,VALID,0,VALID,72.3233,VALID,415.797,VALID,24.5173,VALID,74,VALID,2.66367,
2015-05-30, 08:50:04,VALID,918.214,VALID,0,VALID,72.2014,VALID,403.012,VALID,24.4978,VALID,74,VALID,2.79063,
2015-05-30, 08:51:04,VALID,918.185,VALID,0,VALID,73.7489,VALID,420.525,VALID,24.4978,VALID,63,VALID,2.28203,
2015-05-30, 08:52:04,VALID,918.193,VALID,0,VALID,72.1099,VALID,425.682,VALID,24.535,VALID,64,VALID,2.06484,
2015-05-30, 08:53:04,VALID,918.209,VALID,0,VALID,72.4453,VALID,427.508,VALID,24.5545,VALID,69,VALID,2.58711,
2015-05-30, 08:54:04,VALID,918.168,VALID,0,VALID,72.3233,VALID,430.624,VALID,24.5545,VALID,122,VALID,2.6125,
2015-05-30, 08:55:04,VALID,918.211,VALID,0,VALID,70.8596,VALID,237.982,VALID,24.5173,VALID,104,VALID,2.52227,
2015-05-30, 08:56:04,VALID,918.242,VALID,0,VALID,72.3462,VALID,80.4734,VALID,24.4959,VALID,130,VALID,2.28047,
2015-05-30, 08:57:04,VALID,918.284,VALID,0,VALID,73.627,VALID,450.501,VALID,24.5545,VALID,81,VALID,0.867188,
2015-05-30, 08:58:04,VALID,918.311,VALID,0,VALID,73.6498,VALID,443.732,VALID,24.6521,VALID,51,VALID,2.88047,
2015-05-30, 08:59:04,VALID,918.248,VALID,0,VALID,70.3336,VALID,445.666,VALID,24.6949,VALID,102,VALID,4.45391,
2015-05-30, 09:00:04,VALID,918.222,VALID,0,VALID,70.7529,VALID,437.178,VALID,24.5954,VALID,98,VALID,3.60547,
2015-05-30, 09:01:04,VALID,918.259,VALID,0,VALID,71.6144,VALID,456.195,VALID,24.6345,VALID,57,VALID,4.81719,
2015-05-30, 09:02:04,VALID,918.355,VALID,0,VALID,71.0426,VALID,459.848,VALID,24.693,VALID,124,VALID,3.88984,
2015-05-30, 09:03:04,VALID,918.391,VALID,0,VALID,71.744,VALID,461.245,VALID,24.693,VALID,88,VALID,3.73242,
2015-05-30, 09:04:04,VALID,918.412,VALID,0,VALID,71.6906,VALID,459.633,VALID,24.7144,VALID,106,VALID,2.31055,
2015-05-30, 09:05:04,VALID,918.329,VALID,0,VALID,71.9041,VALID,462.749,VALID,24.693,VALID,58,VALID,2.81445,
2015-05-30, 09:06:04,VALID,918.338,VALID,0,VALID,72.7579,VALID,281.066,VALID,24.693,VALID,63,VALID,2.8457,
2015-05-30, 09:07:04,VALID,918.344,VALID,0,VALID,71.622,VALID,466.939,VALID,24.6716,VALID,82,VALID,2.5625,
2015-05-30, 09:08:04,VALID,918.363,VALID,0,VALID,71.7821,VALID,470.377,VALID,24.7144,VALID,101,VALID,3.37734,
2015-05-30, 09:09:04,VALID,918.403,VALID,0,VALID,72.8646,VALID,476.824,VALID,24.773,VALID,98,VALID,1.45703,
2015-05-30, 09:10:04,VALID,918.372,VALID,0,VALID,73.5965,VALID,478.221,VALID,24.8688,VALID,70,VALID,0.0605469,
2015-05-30, 09:11:04,VALID,918.349,VALID,0,VALID,70.4937,VALID,259.47,VALID,25.0445,VALID,19,VALID,2.01367,
2015-05-30, 09:12:04,VALID,918.409,VALID,0,VALID,71.1265,VALID,489.717,VALID,25.1793,VALID,50,VALID,2.60156,
2015-05-30, 09:13:04,VALID,918.425,VALID,0,VALID,70.7682,VALID,493.37,VALID,25.2593,VALID,89,VALID,1.11523,
2015-05-30, 09:14:04,VALID,918.447,VALID,0,VALID,69.8534,VALID,496.808,VALID,25.2203,VALID,118,VALID,1.14219,
2015-05-30, 09:15:04,VALID,918.461,VALID,0,VALID,70.509,VALID,500.353,VALID,25.2398,VALID,76,VALID,2.79766,
2015-05-30, 09:16:04,VALID,918.387,VALID,0,VALID,69.8457,VALID,332.101,VALID,25.2203,VALID,58,VALID,3.36406,
2015-05-30, 09:17:04,VALID,918.473,VALID,0,VALID,70.9206,VALID,515.503,VALID,25.1226,VALID,104,VALID,3.64805,
2015-05-30, 09:18:04,VALID,918.5,VALID,0,VALID,71.5381,VALID,514.965,VALID,25.064,VALID,93,VALID,1.63359,
2015-05-30, 09:19:04,VALID,918.511,VALID,0,VALID,70.4022,VALID,509.916,VALID,24.984,VALID,84,VALID,3.55469,
2015-05-30, 09:20:04,VALID,918.504,VALID,0,VALID,72.392,VALID,518.726,VALID,24.9859,VALID,91,VALID,0.452734,
2015-05-30, 09:21:04,VALID,918.506,VALID,0,VALID,69.1825,VALID,491.543,VALID,25.064,VALID,87,VALID,2.11406,
2015-05-30, 09:22:04,VALID,918.541,VALID,0,VALID,71.8278,VALID,529.9,VALID,25.1031,VALID,89,VALID,0.221484,
2015-05-30, 09:23:04,VALID,918.481,VALID,0,VALID,72.209,VALID,528.933,VALID,25.0817,VALID,79,VALID,2.48047,
2015-05-30, 09:24:04,VALID,918.516,VALID,0,VALID,70.3184,VALID,520.66,VALID,25.1598,VALID,100,VALID,1.68789,
2015-05-30, 09:25:04,VALID,918.527,VALID,0,VALID,73.0704,VALID,526.677,VALID,25.1988,VALID,106,VALID,1.52422,
2015-05-30, 09:26:04,VALID,918.519,VALID,0,VALID,71.4162,VALID,523.346,VALID,25.316,VALID,120,VALID,0.503906,
2015-05-30, 09:27:04,VALID,918.535,VALID,0,VALID,70.5471,VALID,521.09,VALID,25.4331,VALID,121,VALID,0.0710938,
2015-05-30, 09:28:04,VALID,918.478,VALID,0,VALID,70.1964,VALID,532.801,VALID,25.5698,VALID,71,VALID,0.214062,
2015-05-30, 09:29:04,VALID,918.513,VALID,0,VALID,68.8013,VALID,543.115,VALID,25.7847,VALID,55,VALID,0.828906,
2015-05-30, 09:30:04,VALID,918.571,VALID,0,VALID,69.0377,VALID,555.793,VALID,25.7651,VALID,72,VALID,2.09023,
2015-05-30, 09:31:04,VALID,918.512,VALID,0,VALID,69.6933,VALID,143.864,VALID,25.6089,VALID,126,VALID,2.5207,
2015-05-30, 09:32:04,VALID,918.515,VALID,0,VALID,71.2789,VALID,159.872,VALID,25.5113,VALID,61,VALID,1.68125,
2015-05-30, 09:33:04,VALID,918.523,VALID,0,VALID,69.3045,VALID,321.464,VALID,25.4136,VALID,75,VALID,2.7457,
2015-05-30, 09:34:04,VALID,918.556,VALID,0,VALID,70.3413,VALID,529.04,VALID,25.1988,VALID,116,VALID,1.16758,
2015-05-30, 09:35:04,VALID,918.586,VALID,0,VALID,71.9346,VALID,551.925,VALID,25.0621,VALID,95,VALID,0.993359,
2015-05-30, 09:36:04,VALID,918.571,VALID,0,VALID,71.2637,VALID,554.289,VALID,25.1207,VALID,84,VALID,1.30195,
2015-05-30, 09:37:04,VALID,918.52,VALID,0,VALID,70.4632,VALID,552.355,VALID,25.2183,VALID,75,VALID,3.01016,
2015-05-30, 09:38:04,VALID,918.52,VALID,0,VALID,70.8749,VALID,554.719,VALID,25.2379,VALID,50,VALID,2.13047,
2015-05-30, 09:39:04,VALID,918.55,VALID,0,VALID,71.1265,VALID,548.487,VALID,25.2965,VALID,77,VALID,2.08711,
2015-05-30, 09:40:04,VALID,918.582,VALID,0,VALID,69.8839,VALID,546.983,VALID,25.3941,VALID,115,VALID,2.18516,
2015-05-30, 09:41:04,VALID,918.567,VALID,0,VALID,70.3565,VALID,558.694,VALID,25.3941,VALID,97,VALID,2.27305,
2015-05-30, 09:42:04,VALID,918.598,VALID,0,VALID,68.9843,VALID,562.347,VALID,25.3746,VALID,100,VALID,0.964453,
2015-05-30, 09:43:04,VALID,918.549,VALID,0,VALID,70.7605,VALID,566.967,VALID,25.4722,VALID,41,VALID,1.00781,
2015-05-30, 09:44:04,VALID,918.544,VALID,0,VALID,69.8,VALID,570.513,VALID,25.6284,VALID,72,VALID,0.139844,
2015-05-30, 09:45:04,VALID,918.532,VALID,0,VALID,69.0834,VALID,575.67,VALID,25.6675,VALID,64,VALID,2.71055,
2015-05-30, 09:46:04,VALID,918.522,VALID,0,VALID,67.3681,VALID,578.678,VALID,25.6284,VALID,49,VALID,3.01914,
2015-05-30, 09:47:04,VALID,918.513,VALID,0,VALID,70.3565,VALID,578.141,VALID,25.7261,VALID,61,VALID,1.21445,
2015-05-30, 09:48:04,VALID,918.534,VALID,0,VALID,68.9614,VALID,582.331,VALID,25.7827,VALID,132,VALID,1.39492,
2015-05-30, 09:49:04,VALID,918.517,VALID,0,VALID,67.2919,VALID,584.48,VALID,25.8433,VALID,118,VALID,1.51758,
2015-05-30, 09:50:04,VALID,918.522,VALID,0,VALID,69.2816,VALID,589.637,VALID,25.8608,VALID,57,VALID,1.28945,
2015-05-30, 09:51:04,VALID,918.508,VALID,0,VALID,67.5511,VALID,595.546,VALID,25.9995,VALID,62,VALID,2.075,
2015-05-30, 09:52:04,VALID,918.57,VALID,0,VALID,67.3757,VALID,595.654,VALID,25.9194,VALID,117,VALID,2.05859,
2015-05-30, 09:53:04,VALID,918.563,VALID,0,VALID,67.9399,VALID,595.654,VALID,25.8823,VALID,129,VALID,1.88242,
2015-05-30, 09:54:04,VALID,918.54,VALID,0,VALID,66.6363,VALID,603.819,VALID,25.9214,VALID,116,VALID,3.30898,
2015-05-30, 09:55:04,VALID,918.529,VALID,0,VALID,68.565,VALID,611.448,VALID,25.9409,VALID,27,VALID,2.5332,
2015-05-30, 09:56:04,VALID,918.518,VALID,0,VALID,65.4547,VALID,612.737,VALID,25.9995,VALID,62,VALID,1.20195,
2015-05-30, 09:57:04,VALID,918.521,VALID,0,VALID,67.2614,VALID,617.572,VALID,26.0581,VALID,111,VALID,0.742188,
2015-05-30, 09:58:04,VALID,918.513,VALID,0,VALID,64.8829,VALID,618.216,VALID,26.1558,VALID,102,VALID,0.640234,
2015-05-30, 09:59:04,VALID,918.471,VALID,0,VALID,64.9896,VALID,620.58,VALID,26.1733,VALID,32,VALID,4.34336,
2015-05-30, 10:00:04,VALID,918.49,VALID,0,VALID,66.3923,VALID,623.051,VALID,26.0757,VALID,47,VALID,2.24883,
2015-05-30, 10:01:04,VALID,918.546,VALID,0,VALID,66.621,VALID,623.696,VALID,25.9585,VALID,95,VALID,1.95039,
2015-05-30, 10:02:04,VALID,918.537,VALID,0,VALID,66.7659,VALID,627.564,VALID,25.8823,VALID,67,VALID,2.41797,
2015-05-30, 10:03:04,VALID,918.529,VALID,0,VALID,67.4977,VALID,635.729,VALID,25.8218,VALID,49,VALID,1.75781,
2015-05-30, 10:04:04,VALID,918.475,VALID,0,VALID,64.2806,VALID,647.44,VALID,25.8804,VALID,50,VALID,4.94688,
2015-05-30, 10:05:04,VALID,918.563,VALID,0,VALID,67.5282,VALID,651.201,VALID,25.8999,VALID,134,VALID,1.86445,
2015-05-30, 10:06:04,VALID,918.574,VALID,0,VALID,64.0214,VALID,652.275,VALID,25.8804,VALID,113,VALID,2.68125,
2015-05-30, 10:07:04,VALID,918.529,VALID,0,VALID,68.0161,VALID,663.879,VALID,25.8413,VALID,80,VALID,2.40195,
2015-05-30, 10:08:04,VALID,918.569,VALID,0,VALID,68.8852,VALID,671.83,VALID,25.9194,VALID,109,VALID,2.00625,
2015-05-30, 10:09:04,VALID,918.521,VALID,0,VALID,67.9399,VALID,526.247,VALID,26.0366,VALID,63,VALID,2.56758,
2015-05-30, 10:10:04,VALID,918.544,VALID,0,VALID,68.3363,VALID,331.456,VALID,26.1147,VALID,68,VALID,2.01953,
2015-05-30, 10:11:04,VALID,918.504,VALID,0,VALID,67.8103,VALID,691.814,VALID,26.0561,VALID,37,VALID,3.97422,
2015-05-30, 10:12:04,VALID,918.55,VALID,0,VALID,67.7036,VALID,686.979,VALID,25.8999,VALID,52,VALID,2.62617,
2015-05-30, 10:13:04,VALID,918.525,VALID,0,VALID,66.9946,VALID,702.343,VALID,25.8999,VALID,73,VALID,3.68477,
2015-05-30, 10:14:04,VALID,918.502,VALID,0,VALID,67.5206,VALID,637.986,VALID,25.8999,VALID,56,VALID,3.44609,
2015-05-30, 10:15:04,VALID,918.591,VALID,0,VALID,68.748,VALID,729.203,VALID,25.8608,VALID,61,VALID,1.58008,
2015-05-30, 10:16:04,VALID,918.502,VALID,0,VALID,66.7049,VALID,743.385,VALID,25.7827,VALID,76,VALID,4.47266,
2015-05-30, 10:17:04,VALID,918.638,VALID,0,VALID,69.2435,VALID,780.99,VALID,25.7612,VALID,101,VALID,2.25508,
2015-05-30, 10:18:04,VALID,918.646,VALID,0,VALID,65.7748,VALID,222.511,VALID,25.8999,VALID,85,VALID,1.86328,
2015-05-30, 10:19:04,VALID,918.581,VALID,0,VALID,67.4901,VALID,244.751,VALID,25.8999,VALID,88,VALID,1.49766,
2015-05-30, 10:20:04,VALID,918.646,VALID,0,VALID,66.4457,VALID,257.966,VALID,25.6265,VALID,95,VALID,3.87773,
2015-05-30, 10:21:04,VALID,918.659,VALID,0,VALID,68.7327,VALID,269.033,VALID,25.4898,VALID,112,VALID,0.880469,
2015-05-30, 10:22:04,VALID,918.623,VALID,0,VALID,68.9767,VALID,344.241,VALID,25.3512,VALID,115,VALID,1.95547,
2015-05-30, 10:23:04,VALID,918.65,VALID,0,VALID,69.2969,VALID,897.671,VALID,25.3902,VALID,145,VALID,0.502734,
2015-05-30, 10:24:04,VALID,918.651,VALID,0,VALID,70.6005,VALID,911.961,VALID,25.605,VALID,69,VALID,1.86445,
2015-05-30, 10:25:04,VALID,918.688,VALID,0,VALID,70.5242,VALID,295.141,VALID,25.9956,VALID,70,VALID,0.000390625,
2015-05-30, 10:26:04,VALID,918.651,VALID,0,VALID,66.3085,VALID,249.693,VALID,26.0737,VALID,128,VALID,1.69727,
2015-05-30, 10:27:04,VALID,918.693,VALID,0,VALID,67.4825,VALID,241.635,VALID,25.9956,VALID,108,VALID,0.904688,
2015-05-30, 10:28:04,VALID,918.724,VALID,0,VALID,67.3453,VALID,239.379,VALID,25.8413,VALID,120,VALID,1.35469,
2015-05-30, 10:29:04,VALID,918.674,VALID,0,VALID,67.452,VALID,263.446,VALID,25.6675,VALID,87,VALID,3.08477,
2015-05-30, 10:30:04,VALID,918.679,VALID,0,VALID,69.4569,VALID,385.606,VALID,25.5113,VALID,91,VALID,1.84336,
2015-05-30, 10:31:04,VALID,918.665,VALID,0,VALID,69.4646,VALID,493.477,VALID,25.4527,VALID,92,VALID,0.621094,
2015-05-30, 10:32:04,VALID,918.614,VALID,0,VALID,69.8305,VALID,915.291,VALID,25.5308,VALID,71,VALID,2.48203,
2015-05-30, 10:33:04,VALID,918.672,VALID,0,VALID,67.0632,VALID,355.523,VALID,25.5894,VALID,110,VALID,2.53125,
2015-05-30, 10:34:04,VALID,918.658,VALID,0,VALID,65.386,VALID,286.116,VALID,25.5308,VALID,135,VALID,2.37656,